CZ-6A DEB, 61086

Orbit data source: Space-Track

CZ-6A DEB, 61086 is space debris in LEO originally from a launch on Tue, 06 Aug 2024 UTC launched from the Taiyaun Space Center, China (TSC). Debris objects in space refer to the collection of defunct objects orbiting the Earth. Examples of debris include non-operational satellites, rocket bodies, and fragments generated from explosions, collisions, or faulty payload assembly.

Loading next visibility...
Identifier
61086, 2024-140NC
Orbit
LEO
Country
Flag of CNCN / PRC
Related business
Manufacturer
SAST
Mission
Spacecraft
Bus & Motor
Unknown
Mass
Unknown
Launch date (UTC)
2024-08-06 (1 year ago)
Launch vehicle
Unknown
Launch site
Taiyaun Space Center, China (TSC)
Object type
Payload
Rocket body
Debris
Shape & HBR
Unknown shape, 0.2 m
Radar Cross Section
Small (<0.1 m²)

Expand to show TLE details & history
Last TLE update: 19 hours ago

TLE from 19 hours ago
0 CZ-6A DEB
1 61086U 24140NC  25354.29209218  .00005209  00000-0  44025-3 0  9998
2 61086  89.0339 291.2760 0194576  85.0182 277.3224 14.84273216 71078
Epoch: 2025-12-20T07:00Z
TLE epoch observation values (Epoch: 2025-12-20T07:00:36.764Z)
Latitude
-0°
Longitude
97.00183°
Altitude
604.28 km
Speed
7.565 km/s
True Right ascension
19h 25m 06s
True Declination
0° 00' 00"
Sunlit
Object was in daylight at epoch
Visualization orbit readout
Latitude
Unknown
Longitude
Unknown
Altitude
Unknown
Speed
Unknown
Apparent Right ascension
Unknown
Apparent Declination
Unknown
Sunlit
N/A
Visualization observer readout
Local Sidereal Time
01:00:40
Azimuth
Unknown
Elevation
Unknown
Doppler factor
Unknown
Orbital elements
Apogee altitude
748.751 km
Perigee altitude
476.7 km
Semi-major axis
6,990.863 km
Eccentricity
0.01946
Inclination
89.0339°
RAAN
291.276°
Arg. of periapsis
85.0182°
True anomaly
275.10459°
Mean anomaly
277.3224°
Eccentric anomaly
276.21411°
Mean motion
3.71319 °/min
Orbital period
96.95 mins
BSTAR
0.00044025
Loading maneuver chart data...
Computing Atmospheric mass density...
Loading historical data...
Loading historical data...
Loading historical data...
Loading historical data...
Loading historical data...
Loading historical data...
Loading historical data...

Documentation

Showing up to 5 results
|